User: anonymous   Login
Location: Montr�al
(45.5000°N, 73.5830°W)
Time: 19:00:02
(UTC-04:00)
Language:

Cosmos 1470 Rocket - Orbit

View from above orbital plane
View from above orbital plane
View from above satellite
View from above satellite

Ground track
Ground track

The orbit data is extracted from the following two-line orbital elements,

1 14148U 83061B   16182.24130584  .00000079  00000-0  66396-5 0  9992
2 14148  82.5187 239.2027 0022894  55.3606   7.4275 14.83171304782673
Epoch (UTC): 30 June 2016 05:47:28
Eccentricity: 0.0022894
inclination: 82.5187°
perigee height: 603 km
apogee height: 635 km
right ascension of ascending node: 239.2027°
argument of perigee: 55.3606°
revolutions per day: 14.83171304
mean anomaly at epoch: 7.4275°
orbit number at epoch: 78267

The dashed part of the orbit path shows where the satellite is in the earth's shadow,  

DLR